TimePDT,TemperatureF,Dew PointF,Humidity,Sea Level PressureIn,VisibilityMPH,Wind Direction,Wind SpeedMPH,Gust SpeedMPH,PrecipitationIn,Events,Conditions,WindDirDegrees,DateUTC
12:56 AM,57.0,30.0,36,30.02,10.0,NW,3.5,-,N/A,,Clear,320,2012-10-15 07:56:00
1:56 AM,51.1,28.9,43,30.04,10.0,South,5.8,-,N/A,,Clear,180,2012-10-15 08:56:00
2:56 AM,48.9,28.9,46,30.03,10.0,SSE,6.9,-,N/A,,Clear,150,2012-10-15 09:56:00
3:56 AM,48.9,30.0,48,30.02,10.0,SSE,6.9,-,N/A,,Clear,160,2012-10-15 10:56:00
4:56 AM,48.0,26.1,42,30.02,10.0,SSE,6.9,-,N/A,,Clear,150,2012-10-15 11:56:00
5:56 AM,48.9,28.0,44,30.04,10.0,WSW,3.5,-,N/A,,Clear,250,2012-10-15 12:56:00
6:18 AM,48.2,28.4,46,30.15,10.0,SW,3.5,-,N/A,,Mostly Cloudy,220,2012-10-15 13:18:00
6:56 AM,50.0,28.0,43,30.04,10.0,SSW,5.8,-,N/A,,Mostly Cloudy,200,2012-10-15 13:56:00
7:56 AM,48.9,28.9,46,30.06,10.0,Calm,Calm,-,N/A,,Mostly Cloudy,0,2012-10-15 14:56:00
8:56 AM,57.0,33.1,40,30.07,10.0,Calm,Calm,-,N/A,,Mostly Cloudy,0,2012-10-15 15:56:00
9:56 AM,63.0,34.0,34,30.08,10.0,SE,4.6,-,N/A,,Mostly Cloudy,130,2012-10-15 16:56:00
10:56 AM,68.0,32.0,26,30.07,10.0,Calm,Calm,-,N/A,,Mostly Cloudy,0,2012-10-15 17:56:00
11:56 AM,71.1,30.0,22,30.06,10.0,Calm,Calm,-,N/A,,Mostly Cloudy,0,2012-10-15 18:56:00
12:56 PM,73.0,28.9,20,30.04,10.0,WNW,5.8,-,N/A,,Scattered Clouds,290,2012-10-15 19:56:00
1:56 PM,75.9,26.1,16,30.02,10.0,Variable,5.8,-,N/A,,Scattered Clouds,0,2012-10-15 20:56:00
2:56 PM,77.0,27.0,16,29.99,10.0,Variable,3.5,-,N/A,,Scattered Clouds,0,2012-10-15 21:56:00
3:56 PM,77.0,27.0,16,29.97,10.0,SW,3.5,-,N/A,,Scattered Clouds,220,2012-10-15 22:56:00
4:56 PM,77.0,28.0,17,29.97,10.0,NE,3.5,-,N/A,,Mostly Cloudy,40,2012-10-15 23:56:00
5:56 PM,72.0,28.9,20,29.96,10.0,ENE,5.8,-,N/A,,Mostly Cloudy,70,2012-10-16 00:56:00
6:56 PM,66.9,28.9,24,29.97,10.0,East,3.5,-,N/A,,Mostly Cloudy,100,2012-10-16 01:56:00
7:56 PM,62.1,28.0,28,29.96,10.0,SSE,3.5,-,N/A,,Mostly Cloudy,150,2012-10-16 02:56:00
8:56 PM,62.1,28.0,28,29.97,10.0,South,8.1,-,N/A,,Overcast,170,2012-10-16 03:56:00
9:56 PM,57.0,28.0,33,29.97,10.0,South,5.8,-,N/A,,Partly Cloudy,170,2012-10-16 04:56:00
10:56 PM,57.0,28.0,33,29.97,10.0,Variable,5.8,-,N/A,,Clear,0,2012-10-16 05:56:00
11:56 PM,57.0,28.0,33,29.96,10.0,South,4.6,-,N/A,,Clear,180,2012-10-16 06:56:00